Eastover, SC

7:27 AM EDT on May 27, 2017 (GMT -0400)
McEntire Angs

Weather History for KMMT - May, 2013

Change the Weather History Date:

Wednesday, May 22, 2013

  Actual Average Record
Temperature  
Mean Temperature 76 °F -  
Max Temperature 86 °F 82 °F 92 °F (2011)
Min Temperature 66 °F 63 °F 50 °F (2002)
Cooling Degree Days 10    
Growing Degree Days 26 (Base 50)    
Moisture  
Dew Point 67 °F    
Average Humidity 87    
Maximum Humidity 100    
Minimum Humidity 49    
Precipitation  
Precipitation 0.00 in - - ()
Sea Level Pressure  
Sea Level Pressure 30.01 in    
Wind  
Wind Speed 3 mph (SE)    
Max Wind Speed 10 mph    
Max Gust Speed -    
Visibility 7 miles    
Events Fog    
Averages and records for this station are not official NWS values.
T = Trace of Precipitation, MM = Missing Value Source: NWS Daily Summary

Daily Weather History Graph

Daily Weather History Graph

Search for Another Location

Airport or City:

Trip Planner

Search our weather history database for the weather conditions in past years. The results will help you decide how hot, cold, wet, or windy it might be!

Date:

Astronomy

May. 22, 2013 Rise Set
Actual Time 6:17 AM EDT 8:22 PM EDT
Civil Twilight 5:49 AM EDT 8:51 PM EDT
Nautical Twilight 5:15 AM EDT 9:25 PM EDT
Astronomical Twilight 4:38 AM EDT 10:02 PM EDT
Moon 5:49 PM EDT (5/22) 4:12 AM EDT (5/22)
Length of Visible Light 15h 01m
Length of Day
14h 05m
Waxing Gibbous, 91% of the Moon is Illuminated
May 22
Waxing Gibbous
May 25
Full
May 31
Last Quarter
Jun 8
New
Jun 16
First Quarter

Hourly Weather History & Observations

Time (EDT) Temp. Heat Index Dew Point Humidity Pressure Visibility Wind Dir Wind Speed Gust Speed Precip Events Conditions
12:18 AM 69.8 °F - 69.8 °F 100% 30.03 in 10.0 mi ESE 3.5 mph - N/A   Overcast
12:38 AM 69.8 °F - 69.8 °F 100% 30.02 in 10.0 mi ESE 3.5 mph - N/A   Overcast
12:58 AM 68.5 °F - 68.5 °F 100% 30.04 in 10.0 mi ESE 3.5 mph - N/A   Overcast
1:08 AM 68.0 °F - 68.0 °F 100% 30.03 in 9.0 mi ESE 3.5 mph - N/A   Scattered Clouds
1:28 AM 66.2 °F - 66.2 °F 100% 30.02 in 1.0 mi ESE 2.3 mph - N/A   Clear
1:38 AM 68.0 °F - 68.0 °F 100% 30.02 in 4.0 mi East 3.5 mph - N/A   Partly Cloudy
1:58 AM 67.5 °F - 67.5 °F 100% 30.01 in 4.0 mi ESE 2.3 mph - N/A   Scattered Clouds
2:08 AM 66.2 °F - 66.2 °F 100% 30.01 in 0.8 mi ESE 3.5 mph - N/A   Mist
2:18 AM 66.2 °F - 66.2 °F 100% 30.01 in 1.0 mi East 2.3 mph - N/A   Mist
2:28 AM 66.2 °F - 66.2 °F 100% 30.01 in 0.8 mi East 2.3 mph - N/A   Mist
2:58 AM 66.6 °F - 66.6 °F 100% 30.01 in 0.5 mi Calm Calm - N/A Fog Fog
3:08 AM 66.2 °F - 66.2 °F 100% 30.01 in 0.5 mi NE 1.2 mph - N/A Fog Fog
3:18 AM 66.2 °F - 66.2 °F 100% 30.01 in 1.0 mi Calm Calm - N/A   Overcast
3:38 AM 68.0 °F - 68.0 °F 100% 30.01 in 0.8 mi Calm Calm - N/A   Overcast
3:48 AM 68.0 °F - 68.0 °F 100% 30.01 in 1.2 mi SE 1.2 mph - N/A   Overcast
3:58 AM 68.0 °F - 68.0 °F 100% 30.00 in 2.5 mi Calm Calm - N/A   Overcast
4:08 AM 68.0 °F - 68.0 °F 100% 30.00 in 6.0 mi East 1.2 mph - N/A   Mostly Cloudy
4:18 AM 66.2 °F - 66.2 °F 100% 30.00 in 5.0 mi SE 1.2 mph - N/A   Overcast
4:38 AM 66.2 °F - 66.2 °F 100% 29.99 in 2.5 mi SE 3.5 mph - N/A   Mostly Cloudy
4:48 AM 66.2 °F - 66.2 °F 100% 29.99 in 7.0 mi SE 3.5 mph - N/A   Scattered Clouds
4:58 AM 66.0 °F - 66.0 °F 100% 30.01 in 5.0 mi SSE 3.5 mph - N/A   Partly Cloudy
5:18 AM 66.2 °F - 66.2 °F 100% 30.00 in 10.0 mi South 2.3 mph - N/A   Mostly Cloudy
5:48 AM 68.0 °F - 68.0 °F 100% 30.00 in 10.0 mi South 3.5 mph - N/A   Overcast
5:58 AM 67.5 °F - 67.5 °F 100% 30.01 in 6.0 mi SE 2.3 mph - N/A   Mostly Cloudy
6:18 AM 66.2 °F - 66.2 °F 100% 30.01 in 7.0 mi SE 3.5 mph - N/A   Mostly Cloudy
6:58 AM 66.7 °F - 66.7 °F 100% 30.03 in 6.0 mi ESE 2.3 mph - N/A   Mostly Cloudy
7:18 AM 68.0 °F - 68.0 °F 100% 30.03 in 10.0 mi SSE 2.3 mph - N/A   Mostly Cloudy
7:38 AM 68.0 °F - 68.0 °F 100% 30.03 in 10.0 mi SSE 4.6 mph - N/A   Mostly Cloudy
7:58 AM 68.5 °F - 68.5 °F 100% 30.04 in 10.0 mi South 4.6 mph - N/A   Mostly Cloudy
8:48 AM 69.8 °F - 68.0 °F 94% 30.04 in 10.0 mi South 8.1 mph - N/A   Mostly Cloudy
8:58 AM 71.6 °F - 68.0 °F 88% 30.04 in 10.0 mi South 5.8 mph - N/A   Mostly Cloudy
9:48 AM 73.4 °F - 66.2 °F 78% 30.04 in 10.0 mi Variable 1.2 mph - N/A   Mostly Cloudy
9:58 AM 73.6 °F - 66.9 °F 80% 30.06 in 10.0 mi SSW 4.6 mph - N/A   Mostly Cloudy
10:18 AM 75.2 °F - 66.2 °F 73% 30.04 in 10.0 mi Variable 5.8 mph - N/A   Mostly Cloudy
10:58 AM 77.2 °F - 66.2 °F 69% 30.06 in 10.0 mi South 4.6 mph - N/A   Mostly Cloudy
11:08 AM 78.8 °F - 66.2 °F 65% 30.04 in 10.0 mi Variable 3.5 mph - N/A   Mostly Cloudy
11:58 AM 79.2 °F - 65.5 °F 63% 30.04 in 10.0 mi ESE 5.8 mph - N/A   Scattered Clouds
12:58 PM 80.2 °F 82.2 °F 65.8 °F 61% 30.04 in 10.0 mi Variable 5.8 mph - N/A   Mostly Cloudy
1:58 PM 81.5 °F 83.4 °F 65.5 °F 58% 30.01 in 10.0 mi Variable 1.2 mph - N/A   Mostly Cloudy
2:55 PM 84.0 °F 85.8 °F 65.1 °F 53% 29.99 in 10.0 mi SSW 8.1 mph - N/A   Mostly Cloudy
2:58 PM 84.0 °F 85.8 °F 65.1 °F 53% 29.99 in 10.0 mi Variable 5.8 mph - N/A   Partly Cloudy
3:58 PM 83.3 °F 84.8 °F 64.6 °F 53% 29.96 in 10.0 mi Variable 2.3 mph - N/A   Scattered Clouds
4:58 PM 85.3 °F 86.6 °F 64.0 °F 49% 29.94 in 10.0 mi Variable 3.5 mph - N/A   Scattered Clouds
5:58 PM 85.6 °F 87.1 °F 64.2 °F 49% 29.91 in 10.0 mi SSE 9.2 mph - N/A   Scattered Clouds
6:58 PM 82.2 °F 85.1 °F 67.8 °F 62% 29.91 in 10.0 mi SSE 10.4 mph - N/A   Scattered Clouds
7:55 PM 78.8 °F - 66.7 °F 66% 29.93 in 10.0 mi SSE 8.1 mph - N/A   Scattered Clouds
8:55 PM 75.6 °F - 66.6 °F 74% 29.94 in 10.0 mi South 4.6 mph - N/A   Scattered Clouds
9:58 PM 72.1 °F - 67.1 °F 84% 29.96 in 10.0 mi SE 5.8 mph - N/A   Partly Cloudy
10:58 PM 71.2 °F - 66.6 °F 85% 29.97 in 10.0 mi SSE 6.9 mph - N/A   Partly Cloudy
11:58 PM 69.4 °F - 65.8 °F 88% 29.99 in 10.0 mi ESE 3.5 mph - N/A   Clear